Content
SEND FEEDBACK

Daily
Averages
Monthly
Summary
United States of America

CHICAGO, ILLINOIS


Home > North America > United States > Illinois
Elevation: 674 feet     Latitude: 41 59N     Longitude: 087 54W

WEATHER
 
SELECT A DAY
Number of Records: 198,661;   Date Range: 7/8/95 - 11/19/14
 
SHARE

PRINT THIS DATA

[ ← Previous Day ]
WEATHER ALMANAC - APRIL 6, 2013
[ Next Day → ]
[ °C ]   °F
Weather ElementAverageHighLow
Temperature53.6 °F68 °F (3:52 pm)36 °F (1:52 am)
Dewpoint33.6 °F48 °F (11:52 pm)24.1 °F (7:52 am)
Humidity49.6 %80 % (11:52 pm)27 % (3:52 pm)
Barometer29.85 in30.17 in (1:52 am)29.62 in (10:52 pm)
Wind Speed15.6 mph28.8 mph (2:52 pm)
Wind Gust39.1 mph (2:52 pm)
Weather ElementAverage
Visibility9.4 mi
Wind DirectionSSE (170.8 °)

Weather ElementTotal
Precipitation0.16 in
Heating Degree Days13 (Base 65)
Growing Degree Days2 (Base 50)
Averaged from 24 records on April 6, 2013
WEATHER CONDITIONS BREAKOUT
WIND DIRECTION BREAKOUT
WEATHER BY HOUR - APRIL 6, 2013
[ °C ]   °F
Local TimeTemperatureDewpointHumidityBarometerVisibilityWind DirectionWind SpeedGust SpeedPrecipitationEventsConditions
1:52 AM36.0 °F28.0 °F73 %30.17 in10.0 miEast (100°)9.2 mphOvercast
2:52 AM37.0 °F28.0 °F70 %30.13 in10.0 miEast (100°)6.9 mphScattered Clouds
3:52 AM37.0 °F27.0 °F67 %30.12 in10.0 miEast (100°)3.5 mphScattered Clouds
4:52 AM37.0 °F27.0 °F67 %30.09 in10.0 miESE (120°)5.8 mphScattered Clouds
5:52 AM37.0 °F27.0 °F67 %30.09 in10.0 miSE (130°)6.9 mphClear
6:52 AM37.9 °F27.0 °F65 %30.08 in10.0 miSE (130°)5.8 mphClear
7:52 AM43.0 °F24.1 °F47 %30.05 in10.0 miSSE (150°)12.7 mph21.9 mphClear
8:52 AM46.9 °F24.1 °F41 %30.02 in10.0 miSSE (160°)16.1 mph20.7 mphClear
9:52 AM52.0 °F27.0 °F38 %29.97 in10.0 miSouth (170°)17.3 mph27.6 mphClear
10:52 AM53.1 °F28.0 °F38 %29.95 in9.0 miSouth (170°)20.7 mph26.5 mphOvercast
11:52 AM57.0 °F30.0 °F36 %29.91 in9.0 miSouth (180°)16.1 mph23.0 mphMostly Cloudy
12:52 PM62.1 °F33.1 °F34 %29.83 in9.0 miSouth (170°)21.9 mph35.7 mphClear
1:52 PM64.9 °F33.1 °F31 %29.76 in9.0 miSouth (170°)26.5 mph36.8 mphPartly Cloudy
2:52 PM66.9 °F34.0 °F30 %29.72 in10.0 miSouth (180°)28.8 mph39.1 mphClear
3:52 PM68.0 °F33.1 °F27 %29.71 in10.0 miSSW (200°)26.5 mph35.7 mphOvercast
4:52 PM63.0 °F42.1 °F46 %29.68 in8.0 miSouth (190°)25.3 mph39.1 mph0.00 inRainLight Rain
5:52 PM64.0 °F41.0 °F43 %29.66 in10.0 miSouth (180°)23.0 mph32.2 mph0.00 inOvercast
6:52 PM64.9 °F39.0 °F39 %29.65 in10.0 miSouth (190°)16.1 mph25.3 mph0.00 inMostly Cloudy
7:52 PM66.0 °F36.0 °F33 %29.65 in10.0 miSSW (200°)17.3 mph32.2 mph0.00 inOvercast
8:52 PM64.9 °F37.0 °F36 %29.65 in10.0 miSSW (210°)17.3 mph25.3 mphOvercast
9:52 PM59.0 °F43.0 °F55 %29.63 in9.0 miSSW (200°)10.4 mph0.00 inRainLight Rain
10:52 PM59.0 °F43.0 °F55 %29.62 in10.0 miWest (280°)6.9 mph0.02 inRain-ThunderstormLight Rain
11:26 PM55.4 °F46.4 °F72 %29.64 in6.0 miSSW (210°)16.1 mph23.0 mph0.07 inRainRain
11:52 PM54.0 °F48.0 °F80 %29.64 in6.0 miSSW (210°)16.1 mph0.07 inRainLight Rain
Hourly data recorded from KPWK, located miles away from Chicago, Illinois







STORIES FROM OUR PARTNERS